Location: �quirre
(50.4736°N, 2.2351°E)
Time: 16:38:07
(UTC+00:00)

DNEPR-1 R/B - Pass Details

Date: 07 August 2020
Orbit: 572 x 1350 km, 64.6° (Epoch: 18 September)

Event Time Altitude Azimuth Distance (km) Brightness Sun altitude
Rises 01:17:03 0° 318° (NW) 3,757 7.9 -20.9°
Reaches altitude 10° 01:19:54 10° 319° (NW) 2,676 7.1 -20.7°
Maximum altitude 01:26:03 80° 47° (NE) 822 4.1 -20.4°
Drops below altitude 10° 01:31:00 10° 135° (SE) 2,170 6.1 -20.1°
Enters shadow 01:31:07 - 135° (SE) 2,217 6.2 -20.1°
